Vorticity
11 9 9 9 9 7 6 7 8 7 6 4 5 5 5 6 6 8 9 10 10 10 7 7 10 14 20 23 25 28 28 29 29 19 13 17 17 16 16 16 17 19 22 22 20 21 20 19 18 19 19 19 20 21 22 23 25 25 24 21 18 16 14
10 9 9 9 8 6 6 7 8 6 5 4 5 6 5 6 7 8 9 10 9 8 7 9 13 19 24 24 26 28 28 30 27 15 13 17 16 15 15 14 15 17 19 21 20 19 21 21 20 20 20 19 19 19 20 20 21 23 25 25 24 21 18
9 9 9 9 7 6 7 7 7 5 4 5 5 5 6 7 8 9 9 9 8 7 9 12 16 22 26 26 27 28 28 31 24 12 13 17 14 13 14 13 13 14 17 20 18 16 17 17 17 18 18 18 18 19 19 20 20 20 22 24 25 26 24
9 9 9 8 6 7 8 7 6 5 5 5 5 5 7 7 8 9 9 8 8 9 12 15 20 27 27 27 28 26 28 32 21 10 13 15 12 12 12 10 11 11 13 16 15 14 12 11 12 12 11 12 13 13 14 15 16 17 18 18 20 23 24
9 10 8 7 7 7 8 6 5 5 5 5 5 6 7 8 9 9 8 8 9 11 15 19 25 29 28 27 27 25 30 31 16 8 13 13 10 11 10 9 9 8 8 9 10 10 9 9 10 10 9 9 9 9 10 11 11 12 13 13 14 16 18
9 9 7 7 8 7 7 5 4 5 5 6 6 7 8 8 9 9 8 9 11 14 20 25 29 30 27 27 25 24 32 29 12 8 13 11 9 10 9 8 8 7 7 6 6 7 8 8 9 9 8 8 9 10 9 9 10 11 12 12 12 13 14
9 7 7 8 8 6 5 5 5 6 5 6 7 7 9 9 8 8 9 11 14 19 25 28 29 29 27 27 24 24 32 27 10 7 11 9 8 9 8 8 7 7 7 6 6 7 7 8 9 10 8 7 9 10 9 9 10 9 9 12 12 11 11
7 7 8 8 7 5 5 5 6 6 6 7 7 8 9 8 8 9 10 14 19 25 29 29 29 27 25 25 23 25 32 25 9 6 10 8 8 9 9 8 7 7 6 6 6 7 7 8 9 9 9 7 8 9 9 10 12 11 9 10 12 11 9
7 8 8 7 5 5 5 5 6 7 7 7 8 8 8 8 9 11 14 19 25 29 31 28 27 25 23 24 23 25 31 24 9 6 9 8 9 9 8 8 7 7 6 6 7 6 7 9 8 8 8 7 8 10 9 10 12 12 10 9 10 8 7
8 8 7 6 5 5 5 6 7 7 7 8 8 8 8 8 11 14 19 26 29 30 30 26 25 25 23 23 23 25 30 23 8 6 9 8 8 9 8 8 7 7 7 6 6 7 8 8 7 7 7 8 9 10 11 11 12 10 9 9 8 8 11
8 7 6 5 4 5 6 7 8 7 8 9 8 8 9 9 13 19 26 30 29 28 28 25 24 24 23 24 23 24 30 23 8 5 9 8 7 8 7 8 7 7 7 7 7 8 8 8 8 7 8 9 9 10 12 12 10 9 8 8 12 20 29
7 5 5 4 4 6 7 8 8 8 8 9 9 9 10 12 19 27 30 30 28 27 26 24 24 24 24 24 21 21 29 24 9 5 8 8 7 7 7 7 8 7 7 8 9 8 7 8 8 8 9 9 9 11 11 10 9 8 8 13 24 34 36
6 5 4 5 6 7 8 9 9 8 9 9 10 11 13 18 27 31 30 27 26 25 25 24 24 26 27 24 20 22 26 21 9 5 7 8 6 6 6 7 8 8 8 9 8 8 8 9 9 9 9 9 9 11 10 9 8 8 13 24 31 30 25
4 4 5 6 7 7 9 10 9 9 9 10 12 15 19 25 30 29 26 25 24 23 23 23 24 26 28 24 21 25 26 18 8 5 6 7 6 5 6 7 8 8 9 9 8 7 8 9 8 8 8 8 10 10 9 7 7 11 22 30 27 19 17
4 5 6 7 7 8 9 10 9 9 9 12 17 21 25 29 29 26 23 23 22 21 21 22 23 25 26 23 22 28 29 18 7 5 6 5 4 4 5 7 7 8 8 9 8 8 8 9 9 9 8 10 11 10 9 8 9 17 29 30 21 16 18
5 6 7 8 8 9 9 10 9 9 11 17 23 26 28 29 25 23 22 21 20 20 21 22 22 22 23 21 22 28 30 21 10 5 5 5 3 4 6 7 8 8 8 8 9 9 10 10 10 8 9 10 10 9 8 8 11 21 30 26 17 17 20
6 7 8 8 9 9 9 9 9 11 17 24 28 28 27 26 22 21 22 20 19 20 21 21 21 20 19 20 22 27 28 21 12 7 5 5 4 4 6 8 9 8 8 8 9 10 11 10 9 8 9 10 9 8 8 8 12 24 30 23 16 18 19
7 8 8 8 9 9 9 9 11 17 24 29 29 27 24 22 21 21 21 19 19 21 21 20 18 17 17 18 21 26 25 19 12 7 5 5 4 4 6 8 9 8 8 9 9 10 11 9 8 8 9 9 8 7 8 8 12 23 30 22 16 18 18
7 8 9 9 9 9 8 10 17 24 29 30 28 24 21 21 21 21 19 18 20 21 21 18 16 16 17 17 21 25 24 18 11 6 4 5 5 6 8 8 8 8 8 9 10 10 11 10 10 10 9 8 7 7 8 8 11 22 29 22 15 16 17
8 8 9 10 9 8 9 15 25 30 29 28 26 22 20 20 21 19 18 19 21 21 19 16 15 15 16 17 20 24 23 18 12 6 4 5 5 5 8 9 8 8 8 8 9 10 11 11 11 11 10 9 7 7 8 8 10 21 28 23 15 14 15
8 8 10 10 8 9 15 22 30 31 28 25 24 21 19 20 20 18 17 19 21 19 17 15 15 16 17 18 20 23 22 18 12 8 5 4 5 5 8 9 8 7 7 8 9 10 10 10 10 8 8 7 6 6 7 7 9 18 27 24 16 14 15
8 9 11 9 8 14 22 28 30 30 26 23 23 21 19 19 19 17 16 18 19 17 15 15 16 17 19 19 20 22 22 17 12 9 5 4 5 6 8 9 7 6 7 9 10 9 10 10 9 8 6 6 6 6 6 8 9 15 25 25 16 13 15
9 11 9 8 13 22 28 30 29 27 25 22 21 20 19 18 17 16 15 17 17 16 15 15 16 17 19 20 20 21 21 17 13 8 6 5 4 5 7 7 7 6 8 9 9 10 11 10 10 10 8 7 7 7 7 9 9 13 25 28 17 10 13
10 10 8 11 20 28 30 29 27 25 23 21 20 19 18 17 16 15 14 14 14 14 14 15 16 18 19 21 21 20 18 16 13 9 6 5 4 5 7 7 6 6 7 8 9 10 11 11 11 11 10 7 7 7 8 10 8 11 23 29 19 10 10
10 8 9 15 25 31 31 28 26 23 20 19 19 18 16 15 14 14 12 12 13 13 13 14 15 17 19 20 21 22 19 15 11 9 6 5 4 5 6 6 6 6 7 7 9 10 11 12 11 11 10 8 7 7 8 9 8 11 21 29 21 10 8
8 9 13 20 27 32 30 27 25 22 19 18 18 16 14 13 14 13 12 13 13 13 13 14 15 17 21 23 22 21 20 17 12 9 7 5 4 5 6 7 7 6 6 7 9 10 11 12 12 11 11 9 8 7 8 9 9 10 19 28 24 12 7
9 12 17 23 29 32 30 27 23 20 18 18 16 14 13 13 12 12 13 14 14 14 15 15 14 16 22 27 25 21 19 17 14 11 8 7 5 5 6 7 7 6 6 7 8 10 11 12 12 12 11 9 8 8 7 9 10 9 16 27 26 14 9
12 17 20 25 31 31 28 26 22 18 19 18 15 12 12 11 11 13 14 15 16 16 15 15 15 15 20 25 26 22 19 16 13 11 9 7 6 7 8 8 8 8 8 8 8 9 10 10 10 10 10 9 9 8 7 8 10 9 13 25 27 16 9
17 20 21 27 31 28 25 23 20 18 18 17 13 11 11 10 11 12 13 14 16 16 15 14 14 13 15 18 20 20 18 17 14 12 11 10 8 8 9 9 9 9 8 7 8 8 9 10 10 9 10 10 9 8 7 8 10 9 11 23 28 17 9
20 22 23 28 30 26 22 20 19 20 20 17 13 12 12 13 14 15 16 18 18 17 15 13 11 11 11 11 11 12 13 13 12 10 10 10 8 7 7 8 8 7 6 6 7 8 9 11 11 10 11 11 10 8 7 8 10 9 11 21 28 21 11
22 23 25 28 29 26 22 20 20 21 20 17 15 14 14 14 15 17 19 21 22 20 18 16 15 14 12 11 10 9 9 9 8 8 8 7 6 6 6 6 7 6 6 6 7 8 9 11 11 11 11 11 10 9 8 8 10 9 10 19 28 23 14
24 25 26 26 25 23 20 18 19 19 18 17 16 16 16 16 16 15 15 17 20 20 18 17 18 17 16 15 14 12 11 10 9 9 8 7 7 6 5 6 6 6 7 7 8 9 10 10 11 11 11 10 10 9 7 8 11 10 10 19 27 22 14
23 24 26 25 22 19 16 15 16 15 15 16 16 16 17 18 18 16 13 13 16 18 16 15 17 16 16 16 15 14 13 12 11 10 10 9 9 8 7 7 7 7 8 8 8 9 10 11 11 11 11 10 9 9 8 9 11 10 10 18 26 23 14
22 22 23 23 20 17 16 15 15 14 14 14 14 14 16 17 17 15 12 12 14 15 14 14 15 14 14 14 14 14 13 13 12 12 11 11 10 10 9 8 8 9 8 8 9 10 10 11 11 11 12 11 9 9 8 9 11 10 11 19 27 23 14
23 21 22 21 17 15 14 14 14 14 13 12 11 12 13 15 14 13 12 13 13 13 14 14 14 13 13 13 13 13 13 12 12 12 11 11 10 10 10 9 9 9 9 9 10 10 10 11 11 11 11 11 9 9 9 10 11 10 11 21 28 22 14
25 23 22 19 16 15 14 14 14 13 12 11 10 10 11 12 13 12 12 12 11 11 13 13 13 13 13 13 13 13 12 12 12 11 11 11 10 9 9 9 9 10 10 10 11 11 11 11 11 11 11 10 10 9 9 10 12 10 13 22 28 21 13
Height
5417 5413 5409 5405 5401 5397 5392 5388 5383 5378 5373 5369 5364 5359 5354 5349 5343 5338 5333 5327 5322 5316 5310 5305 5299 5294 5287 5280 5275 5272 5268 5265 5261 5259 5257 5256 5255 5254 5252 5252 5253 5256 5261 5259 5254 5251 5250 5251 5251 5252 5253 5253 5254 5256 5256 5257 5259 5260 5262 5264 5267 5270 5272
5408 5404 5400 5395 5391 5387 5382 5378 5373 5367 5363 5358 5353 5348 5343 5337 5332 5326 5321 5315 5309 5303 5297 5292 5287 5281 5275 5268 5263 5260 5257 5254 5251 5249 5248 5247 5246 5246 5245 5244 5245 5247 5250 5251 5247 5243 5243 5245 5245 5245 5246 5245 5246 5247 5247 5248 5249 5250 5252 5254 5255 5257 5260
5398 5394 5390 5386 5381 5377 5372 5367 5362 5357 5352 5347 5341 5336 5331 5326 5320 5314 5309 5303 5297 5291 5285 5279 5274 5268 5262 5256 5252 5249 5246 5243 5241 5240 5239 5239 5237 5237 5237 5236 5237 5238 5240 5242 5241 5237 5237 5239 5239 5239 5239 5239 5238 5239 5239 5240 5240 5241 5242 5243 5243 5244 5247
5389 5384 5380 5376 5371 5367 5362 5356 5351 5346 5341 5335 5330 5324 5319 5314 5308 5302 5296 5291 5285 5279 5273 5267 5261 5256 5250 5244 5241 5239 5235 5233 5232 5231 5230 5230 5229 5229 5229 5229 5229 5230 5231 5233 5234 5232 5232 5233 5233 5233 5232 5232 5232 5231 5231 5232 5233 5233 5232 5232 5232 5233 5234
5379 5375 5371 5366 5361 5356 5351 5346 5341 5336 5330 5324 5318 5313 5308 5302 5296 5290 5284 5279 5273 5267 5260 5254 5249 5244 5238 5233 5230 5228 5225 5223 5222 5222 5222 5222 5221 5221 5221 5221 5222 5223 5223 5224 5225 5226 5226 5227 5228 5227 5225 5225 5224 5224 5224 5224 5224 5223 5222 5221 5222 5222 5223
5370 5365 5361 5357 5351 5346 5341 5336 5330 5324 5318 5312 5306 5301 5296 5290 5284 5278 5273 5267 5261 5254 5248 5242 5237 5232 5226 5222 5220 5218 5215 5213 5213 5213 5213 5213 5213 5212 5213 5214 5214 5215 5215 5216 5217 5218 5219 5220 5221 5220 5218 5216 5216 5215 5214 5214 5214 5214 5213 5212 5213 5214 5214
5360 5356 5352 5347 5341 5336 5331 5325 5319 5313 5307 5301 5295 5289 5283 5278 5272 5266 5261 5255 5249 5242 5236 5230 5225 5220 5215 5212 5209 5207 5205 5204 5204 5205 5205 5205 5205 5205 5205 5206 5207 5207 5207 5208 5208 5209 5211 5212 5213 5213 5210 5207 5206 5205 5204 5202 5203 5206 5206 5204 5204 5206 5206
5352 5347 5342 5337 5331 5326 5321 5315 5308 5302 5295 5289 5283 5276 5271 5265 5260 5254 5248 5243 5237 5230 5224 5218 5213 5209 5205 5202 5199 5197 5196 5196 5196 5196 5197 5197 5196 5197 5198 5198 5199 5199 5199 5200 5200 5201 5202 5203 5205 5205 5202 5197 5195 5195 5195 5192 5191 5196 5197 5195 5196 5197 5196
5342 5338 5332 5327 5321 5316 5310 5304 5297 5290 5283 5277 5271 5265 5259 5253 5247 5241 5235 5230 5225 5219 5213 5207 5202 5198 5194 5192 5189 5188 5187 5187 5187 5188 5189 5189 5189 5189 5190 5190 5191 5192 5192 5192 5192 5192 5193 5195 5197 5196 5192 5188 5185 5185 5185 5183 5181 5183 5185 5184 5187 5190 5187
5333 5328 5322 5317 5311 5306 5299 5293 5286 5279 5272 5265 5259 5252 5247 5242 5236 5229 5223 5218 5212 5207 5201 5195 5191 5187 5184 5182 5180 5179 5178 5178 5179 5180 5181 5181 5181 5182 5182 5183 5184 5184 5184 5184 5184 5184 5185 5186 5188 5187 5183 5180 5178 5175 5174 5174 5172 5172 5173 5172 5175 5180 5177
5323 5318 5312 5307 5302 5295 5289 5282 5274 5267 5261 5253 5246 5239 5232 5229 5225 5218 5212 5207 5202 5197 5191 5186 5181 5178 5175 5172 5170 5169 5170 5170 5171 5172 5173 5173 5174 5175 5175 5175 5176 5176 5176 5176 5176 5177 5176 5177 5179 5178 5174 5172 5169 5165 5164 5164 5163 5162 5160 5160 5161 5166 5166
5314 5308 5303 5297 5292 5285 5278 5271 5263 5256 5249 5242 5234 5225 5217 5212 5210 5205 5201 5197 5192 5188 5183 5178 5174 5171 5168 5165 5162 5161 5161 5162 5163 5164 5165 5166 5167 5167 5168 5168 5168 5169 5169 5169 5168 5168 5167 5167 5168 5168 5165 5163 5159 5157 5155 5155 5154 5151 5148 5147 5147 5150 5151
5304 5299 5293 5287 5281 5275 5268 5261 5253 5245 5238 5230 5223 5214 5204 5198 5194 5191 5187 5183 5180 5176 5172 5169 5166 5163 5162 5159 5156 5154 5153 5154 5155 5156 5157 5158 5159 5160 5161 5161 5161 5161 5161 5161 5160 5160 5160 5159 5158 5158 5157 5154 5151 5149 5147 5146 5144 5141 5136 5134 5134 5135 5137
5295 5289 5283 5276 5271 5265 5258 5250 5241 5234 5226 5218 5211 5203 5193 5186 5182 5178 5175 5171 5168 5164 5161 5158 5156 5154 5153 5152 5149 5147 5146 5146 5147 5148 5150 5151 5152 5152 5153 5153 5154 5154 5153 5152 5151 5152 5152 5151 5149 5150 5149 5146 5143 5142 5140 5137 5135 5132 5127 5124 5123 5123 5124
5285 5279 5272 5266 5260 5254 5248 5239 5229 5222 5214 5206 5199 5191 5183 5177 5172 5168 5165 5161 5157 5154 5152 5149 5147 5146 5145 5144 5142 5141 5139 5139 5140 5141 5143 5144 5144 5144 5145 5146 5147 5146 5145 5144 5143 5142 5142 5141 5140 5139 5138 5137 5135 5133 5131 5127 5125 5123 5118 5115 5114 5113 5114
5275 5269 5262 5255 5249 5243 5238 5229 5218 5210 5203 5195 5187 5179 5173 5168 5163 5159 5156 5152 5149 5146 5144 5141 5139 5138 5137 5136 5135 5133 5132 5132 5133 5135 5136 5137 5137 5138 5139 5140 5140 5139 5138 5137 5136 5135 5134 5132 5130 5128 5128 5128 5127 5124 5121 5118 5116 5113 5109 5106 5106 5106 5106
5265 5259 5252 5245 5238 5232 5227 5219 5208 5198 5191 5183 5175 5168 5163 5158 5155 5151 5148 5144 5140 5138 5136 5134 5132 5130 5129 5129 5127 5126 5125 5124 5125 5127 5129 5130 5131 5132 5134 5135 5134 5132 5131 5130 5129 5128 5126 5124 5121 5119 5119 5119 5117 5115 5111 5108 5107 5104 5100 5098 5098 5099 5098
5255 5248 5241 5234 5228 5221 5215 5208 5198 5188 5180 5173 5165 5158 5153 5149 5146 5143 5140 5137 5134 5131 5129 5127 5125 5123 5121 5121 5120 5118 5118 5117 5117 5120 5122 5124 5125 5126 5128 5128 5126 5125 5124 5123 5122 5120 5119 5116 5113 5111 5110 5110 5108 5106 5102 5098 5096 5094 5091 5091 5091 5091 5090
5245 5238 5231 5223 5217 5210 5203 5197 5189 5178 5170 5163 5156 5149 5144 5141 5138 5135 5132 5129 5127 5125 5123 5121 5119 5116 5114 5114 5113 5112 5111 5110 5110 5113 5115 5117 5119 5121 5122 5121 5119 5118 5118 5117 5115 5113 5110 5108 5105 5103 5101 5101 5100 5098 5095 5091 5087 5085 5083 5083 5083 5082 5082
5235 5229 5221 5213 5206 5199 5191 5185 5178 5169 5160 5153 5147 5141 5136 5133 5130 5128 5125 5123 5121 5119 5117 5115 5112 5109 5107 5106 5106 5105 5104 5104 5104 5106 5108 5110 5112 5113 5114 5114 5113 5113 5112 5111 5109 5107 5104 5101 5098 5095 5092 5090 5089 5088 5086 5083 5079 5077 5075 5075 5075 5074 5073
5225 5219 5212 5203 5195 5188 5180 5173 5166 5159 5151 5144 5139 5133 5129 5125 5123 5120 5118 5117 5115 5113 5111 5109 5106 5103 5101 5099 5099 5098 5098 5098 5099 5099 5101 5103 5105 5105 5106 5107 5107 5106 5105 5104 5103 5102 5099 5096 5093 5090 5086 5083 5081 5079 5076 5074 5071 5069 5067 5066 5067 5066 5065
5215 5209 5202 5194 5185 5177 5169 5162 5155 5149 5143 5136 5131 5127 5122 5118 5115 5112 5110 5110 5110 5107 5104 5102 5100 5097 5095 5093 5092 5091 5091 5092 5092 5092 5094 5096 5097 5097 5099 5100 5099 5098 5097 5097 5096 5095 5093 5091 5087 5084 5082 5079 5076 5073 5070 5067 5064 5062 5059 5058 5058 5058 5058
5205 5198 5192 5184 5175 5166 5158 5152 5146 5139 5134 5128 5124 5120 5116 5112 5108 5105 5103 5103 5103 5101 5098 5096 5094 5092 5089 5087 5086 5085 5084 5085 5086 5087 5088 5089 5089 5090 5092 5092 5090 5089 5090 5089 5088 5087 5085 5083 5080 5078 5075 5073 5070 5067 5065 5062 5058 5055 5053 5051 5050 5049 5049
5195 5188 5181 5173 5165 5157 5149 5142 5136 5130 5125 5120 5117 5113 5110 5106 5102 5099 5097 5096 5096 5094 5092 5090 5088 5086 5084 5082 5080 5079 5078 5079 5080 5081 5082 5082 5082 5083 5084 5083 5082 5082 5082 5081 5080 5079 5077 5075 5073 5071 5068 5066 5063 5061 5058 5056 5053 5050 5047 5045 5043 5042 5041
5185 5177 5170 5162 5155 5148 5141 5134 5128 5123 5117 5112 5110 5107 5103 5100 5097 5093 5091 5089 5088 5086 5084 5083 5081 5079 5077 5076 5074 5073 5073 5073 5074 5074 5075 5075 5076 5076 5076 5075 5075 5075 5074 5074 5073 5071 5070 5068 5066 5063 5061 5059 5057 5054 5052 5049 5047 5044 5041 5038 5036 5035 5034
5175 5167 5159 5152 5145 5139 5133 5126 5121 5115 5110 5106 5103 5100 5096 5094 5091 5088 5086 5084 5082 5080 5077 5076 5074 5072 5070 5070 5069 5068 5068 5068 5068 5068 5068 5069 5069 5069 5069 5069 5068 5068 5068 5067 5066 5065 5064 5062 5059 5056 5054 5051 5050 5048 5045 5043 5041 5038 5035 5032 5030 5029 5028
5164 5156 5148 5142 5136 5130 5125 5120 5114 5108 5103 5099 5096 5093 5090 5087 5084 5082 5080 5078 5076 5074 5071 5069 5067 5065 5064 5063 5063 5062 5062 5062 5062 5062 5062 5063 5063 5063 5063 5062 5062 5062 5061 5061 5060 5059 5058 5055 5053 5050 5047 5044 5043 5041 5038 5036 5034 5032 5028 5025 5023 5023 5022
5154 5145 5137 5132 5127 5122 5117 5113 5107 5102 5098 5093 5089 5086 5083 5080 5077 5075 5073 5072 5070 5067 5065 5062 5060 5058 5057 5057 5057 5056 5056 5056 5056 5056 5056 5057 5057 5057 5057 5056 5056 5056 5055 5054 5054 5053 5051 5049 5046 5044 5041 5038 5037 5034 5031 5029 5027 5025 5022 5019 5017 5017 5016
5143 5135 5128 5123 5118 5113 5109 5106 5101 5096 5091 5087 5083 5079 5076 5073 5070 5067 5065 5064 5063 5060 5057 5055 5053 5051 5050 5050 5050 5050 5050 5050 5050 5050 5050 5050 5050 5050 5050 5050 5049 5049 5048 5047 5046 5045 5043 5041 5038 5036 5034 5032 5030 5028 5025 5022 5020 5018 5015 5013 5011 5010 5010
5132 5125 5119 5114 5109 5104 5101 5098 5094 5090 5086 5082 5077 5074 5071 5068 5066 5063 5060 5059 5058 5054 5051 5049 5047 5045 5044 5044 5043 5043 5043 5043 5043 5044 5043 5043 5043 5043 5042 5042 5041 5040 5039 5038 5037 5036 5034 5032 5030 5029 5027 5025 5023 5021 5018 5015 5014 5011 5009 5007 5005 5004 5004
5122 5115 5109 5106 5102 5098 5094 5091 5088 5085 5082 5077 5073 5070 5066 5064 5061 5058 5055 5054 5054 5051 5048 5045 5043 5042 5040 5039 5038 5038 5037 5037 5037 5037 5036 5036 5035 5034 5034 5033 5032 5031 5030 5030 5029 5028 5026 5025 5023 5021 5020 5018 5016 5014 5011 5009 5007 5005 5003 5001 4999 4998 4998
5112 5106 5100 5096 5092 5089 5086 5084 5081 5078 5075 5071 5068 5064 5061 5059 5056 5053 5049 5047 5047 5046 5043 5041 5039 5038 5036 5035 5034 5033 5032 5031 5030 5030 5029 5029 5028 5027 5026 5025 5025 5024 5023 5023 5022 5020 5019 5018 5016 5014 5013 5011 5009 5007 5005 5003 5001 4999 4997 4995 4993 4993 4992
5101 5097 5093 5088 5084 5080 5078 5076 5073 5070 5067 5064 5061 5058 5055 5053 5051 5048 5044 5042 5041 5040 5037 5035 5034 5033 5031 5030 5029 5028 5026 5025 5025 5024 5023 5022 5021 5020 5019 5018 5018 5017 5016 5015 5014 5013 5012 5011 5009 5007 5006 5004 5002 5001 4999 4997 4995 4993 4991 4989 4987 4987 4986
5091 5087 5084 5081 5077 5073 5071 5069 5066 5063 5060 5057 5054 5052 5050 5048 5046 5043 5040 5037 5035 5034 5032 5030 5028 5026 5025 5024 5023 5022 5021 5020 5019 5018 5017 5016 5015 5014 5013 5012 5011 5011 5009 5008 5007 5006 5005 5003 5002 5001 4999 4998 4996 4994 4993 4991 4989 4987 4985 4983 4981 4981 4981
5086 5079 5076 5073 5070 5067 5064 5062 5059 5056 5053 5050 5048 5046 5044 5042 5040 5037 5034 5032 5030 5028 5026 5024 5023 5021 5019 5018 5017 5016 5015 5014 5013 5012 5011 5010 5009 5008 5007 5006 5005 5004 5003 5001 5000 4999 4998 4996 4995 4994 4993 4991 4990 4988 4986 4984 4982 4981 4979 4977 4976 4976 4976
5082 5075 5070 5066 5063 5061 5058 5056 5053 5050 5047 5044 5041 5039 5038 5036 5034 5031 5028 5026 5024 5022 5020 5019 5017 5015 5013 5012 5011 5009 5008 5007 5006 5005 5004 5003 5002 5001 4999 4998 4997 4997 4996 4994 4993 4992 4991 4989 4988 4987 4986 4985 4983 4981 4979 4978 4976 4975 4973 4972 4971 4971 4971